Location: Bednik
(45.3500°N, 16.3833°E)
Time: 04:31:39
(UTC+00:00)

Cosmos 1975 - Pass Details

Date: 08 August 2020
Orbit: 542 x 561 km, 82.5° (Epoch: 19 September)

Event Time Altitude Azimuth Distance (km) Brightness Sun altitude
Exits shadow 23:01:31 34° 18° (NNE) 930 4.4 -28.9°
Drops below altitude 10° 23:03:52 10° 12° (NNE) 1,838 6.4 -28.9°
Sets 23:06:03 0° 11° (N) 2,740 7.6 -28.8°
